This is the latest recevied weather packets stored in our database for station/object KD0SBN. If no packets are shown the sender has not sent any weather packets the latest 10 day(s).
| Time | Temp. | Humidity | Pressure | Rain* | Wind** | Luminosity | Snow |
|---|---|---|---|---|---|---|---|
| 1777743402 | 18.33° C | 25% | 1021.9 hPa | 0 mm | - | - | - |
| 1777743099 | 18.89° C | 25% | 1021.9 hPa | 0 mm | - | - | - |
| 1777742796 | 19.44° C | 25% | 1022.2 hPa | 0 mm | - | - | - |
| 1777742494 | 18.33° C | 26% | 1022 hPa | 0 mm | - | - | - |
| 1777742189 | 17.78° C | 26% | 1021.9 hPa | 0 mm | - | - | - |
| 1777741886 | 18.33° C | 25% | 1022.1 hPa | 0 mm | - | - | - |
| 1777741583 | 18.33° C | 27% | 1022 hPa | 0 mm | - | - | - |
| 1777741280 | 18.33° C | 28% | 1022.1 hPa | 0 mm | - | - | - |
| 1777740976 | 18.33° C | 27% | 1022.1 hPa | 0 mm | - | - | - |
| 1777740673 | 18.33° C | 28% | 1022.2 hPa | 0 mm | - | - | - |
| 1777740369 | 18.33° C | 27% | 1022.2 hPa | 0 mm | - | - | - |
| 1777740066 | 17.22° C | 26% | 1022.2 hPa | 0 mm | - | - | - |
| 1777739762 | 18.33° C | 27% | 1022 hPa | 0 mm | - | - | - |
| 1777739459 | 17.22° C | 28% | 1022.1 hPa | 0 mm | - | - | - |
| 1777739156 | 17.22° C | 25% | 1022.2 hPa | 0 mm | - | - | - |
| 1777738853 | 17.22° C | 29% | 1022 hPa | 0 mm | - | - | - |
| 1777738550 | 17.22° C | 28% | 1022.1 hPa | 0 mm | - | - | - |
| 1777738247 | 17.78° C | 36% | 1022.1 hPa | 0 mm | - | - | - |
| 1777737945 | 17.22° C | 34% | 1022.1 hPa | 0 mm | - | - | - |
| 1777737643 | 16.67° C | 35% | 1022.1 hPa | 0 mm | - | - | - |
| 1777737342 | 16.67° C | 36% | 1022.1 hPa | 0 mm | - | - | - |
| 1777737039 | 16.11° C | 37% | 1022.2 hPa | 0 mm | - | - | - |
| 1777736735 | 16.11° C | 36% | 1022.3 hPa | 0 mm | - | - | - |
| 1777736106 | 16.67° C | 36% | 1022.1 hPa | 0 mm | - | - | - |
| 1777735803 | 16.11° C | 36% | 1022.2 hPa | 0 mm | - | - | - |
* Rain latest hour (hover to see other rain measurements)
** Current wind speed in m/s (hover to see current wind gust speed)